Overview Statistics Trail Chart Weather Telemetry Raw packets
 

This is the latest recevied weather packets stored in our database for station/object WX5KDM. If no packets are shown the sender has not sent any weather packets the latest 10 day(s).

<< 23 24 25 26 27 28 29 >>
Time Temp. Humidity Pressure Rain* Wind** Luminosity Snow
1788464071 37.22° C 47% 1015.1 hPa 0 mm - - -
1788463766 37.22° C 45% 1015.3 hPa 0 mm - - -
1788463463 36.11° C 47% 1015.1 hPa 0 mm - - -
1788463158 36.11° C 49% 1015.3 hPa 0 mm - - -
1788462855 37.22° C 47% 1015.4 hPa 0 mm - - -
1788462553 36.11° C 50% 1015.5 hPa 0 mm - - -
1788462248 36.11° C 50% 1015.5 hPa 0 mm - - -
1788461947 35.56° C 50% 1015.6 hPa 0 mm - - -
1788461642 36.11° C 50% 1015.8 hPa 0 mm - - -
1788461338 35.56° C 51% 1015.9 hPa 0 mm - - -
1788461035 36.11° C 50% 1015.9 hPa 0 mm - - -
1788460729 36.67° C 48% 1016 hPa 0 mm - - -
1788460424 36.67° C 49% 1016 hPa 0 mm - - -
1788460123 36.11° C 51% 1016 hPa 0 mm - - -
1788459822 36.11° C 51% 1016 hPa 0 mm - - -
1788459516 36.11° C 51% 1016.4 hPa 0 mm - - -
1788459212 36.11° C 48% 1016.2 hPa 0 mm - - -
1788458906 36.11° C 51% 1016.3 hPa 0 mm - - -
1788458605 35.56° C 50% 1016.2 hPa 0 mm - - -
1788458300 35.56° C 50% 1016.3 hPa 0 mm - - -
1788457999 35.56° C 50% 1016.5 hPa 0 mm - - -
1788457693 35.56° C 51% 1016.4 hPa 0 mm - - -
1788457389 35.56° C 50% 1016.6 hPa 0 mm - - -
1788457083 35° C 51% 1016.6 hPa 0 mm - - -
1788456779 35.56° C 51% 1016.6 hPa 0 mm - - -

* Rain latest hour (hover to see other rain measurements)
** Current wind speed in m/s (hover to see current wind gust speed)